| time (UTC) | temp C | wind direction | speed KPH | gust KPH | rain 1hr cm | rain 24hr cm | rain mn cm | humidity % | barometer mb |
| 20260507001037 | 18 | 354 | 11.3 | 19.3 | 0.00 | 0.03 | 0.00 | 80 | 1011.9 |
| 20260507000017 | 18 | 358 | 11.3 | 20.9 | 0.00 | 0.28 | 0.00 | 79 | 1011.8 |
| 20260506235017 | 19 | 2 | 11.3 | 16.1 | 0.00 | 0.28 | 0.00 | 79 | 1011.8 |
| 20260506234018 | 20 | 344 | 8.0 | 14.5 | 0.00 | 0.28 | 0.00 | 78 | 1011.6 |
| 20260506233017 | 20 | 333 | 12.9 | 25.7 | 0.00 | 0.28 | 0.00 | 78 | 1011.2 |
| 20260506232018 | 20 | 353 | 9.7 | 16.1 | 0.00 | 0.28 | 0.00 | 77 | 1011.3 |
| 20260506231018 | 20 | 352 | 12.9 | 22.5 | 0.00 | 0.28 | 0.00 | 76 | 1011.0 |
| 20260506230018 | 21 | 14 | 12.9 | 22.5 | 0.00 | 0.28 | 0.00 | 74 | 1010.9 |
| 20260506225039 | 21 | 6 | 16.1 | 22.5 | 0.00 | 0.28 | 0.00 | 74 | 1010.8 |
| 20260506224019 | 22 | 16 | 16.1 | 20.9 | 0.00 | 0.28 | 0.00 | 73 | 1010.6 |
| 20260506223019 | 22 | 14 | 16.1 | 20.9 | 0.00 | 0.28 | 0.00 | 72 | 1010.6 |
| 20260506222016 | 22 | 17 | 16.1 | 29.0 | 0.00 | 0.28 | 0.00 | 71 | 1010.6 |
| 20260506221017 | 23 | 16 | 16.1 | 25.7 | 0.00 | 0.28 | 0.00 | 71 | 1010.4 |
| 20260506220036 | 23 | 14 | 14.5 | 32.2 | 0.00 | 0.28 | 0.00 | 70 | 1010.6 |
| 20260506215016 | 23 | 8 | 19.3 | 33.8 | 0.00 | 0.28 | 0.00 | 72 | 1010.2 |
| 20260506214017 | 25 | 4 | 12.9 | 22.5 | 0.00 | 0.28 | 0.00 | 70 | 1010.0 |
| 20260506213017 | 27 | 351 | 12.9 | 22.5 | 0.00 | 0.28 | 0.00 | 67 | 1009.9 |
| 20260506212017 | 27 | 8 | 12.9 | 22.5 | 0.00 | 0.28 | 0.00 | 70 | 1010.0 |
| 20260506211017 | 27 | 6 | 11.3 | 20.9 | 0.00 | 0.28 | 0.00 | 70 | 1010.3 |
| 20260506210018 | 27 | 14 | 9.7 | 17.7 | 0.00 | 0.28 | 0.00 | 72 | 1010.3 |
| 20260506205018 | 26 | 356 | 8.0 | 14.5 | 0.00 | 0.28 | 0.00 | 74 | 1010.4 |
| 20260506204037 | 27 | 340 | 8.0 | 14.5 | 0.00 | 0.28 | 0.00 | 72 | 1010.4 |
| 20260506203018 | 27 | 3 | 12.9 | 19.3 | 0.00 | 0.28 | 0.00 | 71 | 1010.4 |
| 20260506202018 | 27 | 341 | 8.0 | 17.7 | 0.00 | 0.28 | 0.00 | 71 | 1010.6 |
| 20260506201018 | 26 | 7 | 11.3 | 19.3 | 0.00 | 0.28 | 0.00 | 72 | 1010.7 |
| 20260506200019 | 26 | 353 | 9.7 | 20.9 | 0.00 | 0.28 | 0.00 | 74 | 1010.7 |
| 20260506195019 | 26 | 358 | 9.7 | 16.1 | 0.00 | 0.28 | 0.00 | 76 | 1010.9 |
| 20260506194016 | 26 | 338 | 11.3 | 22.5 | 0.00 | 0.28 | 0.00 | 77 | 1011.0 |
| 20260506193016 | 25 | 324 | 9.7 | 16.1 | 0.00 | 0.28 | 0.00 | 80 | 1011.1 |
| 20260506192016 | 25 | 284 | 8.0 | 16.1 | 0.00 | 0.28 | 0.00 | 79 | 1011.3 |
| 20260506191137 | 26 | 285 | 6.4 | 11.3 | 0.00 | 0.28 | 0.00 | 78 | 1011.2 |
| 20260506190037 | 25 | 303 | 4.8 | 9.7 | 0.00 | 0.28 | 0.00 | 78 | 1011.1 |
| 20260506185016 | 25 | 334 | 4.8 | 8.0 | 0.00 | 0.28 | 0.00 | 82 | 1011.2 |
| 20260506184017 | 24 | 328 | 4.8 | 11.3 | 0.00 | 0.28 | 0.00 | 84 | 1011.4 |
| 20260506183017 | 23 | 313 | 4.8 | 8.0 | 0.00 | 0.28 | 0.00 | 87 | 1011.6 |
| 20260506182017 | 22 | 287 | 3.2 | 8.0 | 0.00 | 0.28 | 0.00 | 89 | 1011.6 |
| 20260506181017 | 22 | 318 | 4.8 | 9.7 | 0.00 | 0.28 | 0.00 | 90 | 1011.7 |
| 20260506180017 | 22 | 350 | 6.4 | 14.5 | 0.00 | 0.28 | 0.00 | 90 | 1011.8 |
| 20260506175037 | 22 | 345 | 9.7 | 14.5 | 0.00 | 0.28 | 0.00 | 91 | 1011.8 |
| 20260506174018 | 22 | 4 | 8.0 | 12.9 | 0.00 | 0.28 | 0.00 | 92 | 1011.8 |
| 20260506173018 | 21 | 1 | 9.7 | 12.9 | 0.00 | 0.28 | 0.00 | 92 | 1011.7 |
| 20260506172018 | 22 | 9 | 9.7 | 16.1 | 0.00 | 0.28 | 0.00 | 92 | 1011.7 |
| 20260506171039 | 23 | 4 | 12.9 | 17.7 | 0.00 | 0.28 | 0.00 | 90 | 1011.7 |
| 20260506170018 | 24 | 326 | 6.4 | 12.9 | 0.00 | 0.28 | 0.00 | 90 | 1011.8 |
| 20260506165042 | 23 | 334 | 4.8 | 8.0 | 0.00 | 0.28 | 0.00 | 90 | 1011.7 |
| 20260506164018 | 23 | 350 | 4.8 | 8.0 | 0.00 | 0.28 | 0.00 | 90 | 1011.6 |
| 20260506163022 | 23 | 321 | 1.6 | 3.2 | 0.00 | 0.28 | 0.00 | 91 | 1011.5 |
| 20260506162042 | 23 | 345 | 4.8 | 6.4 | 0.00 | 0.28 | 0.00 | 90 | 1011.5 |
| 20260506161022 | 23 | 360 | 3.2 | 4.8 | 0.00 | 0.28 | 0.00 | 91 | 1011.4 |
| 20260506160022 | 23 | 3 | 1.6 | 3.2 | 0.00 | 0.28 | 0.00 | 93 | 1011.4 |
| 20260506155022 | 23 | 355 | 1.6 | 3.2 | 0.00 | 0.28 | 0.00 | 94 | 1011.3 |
| 20260506154023 | 23 | 149 | 1.6 | 4.8 | 0.00 | 0.28 | 0.00 | 95 | 1011.1 |
| 20260506153042 | 22 | 165 | 3.2 | 6.4 | 0.00 | 0.28 | 0.00 | 95 | 1011.0 |
| 20260506152023 | 22 | 207 | 1.6 | 4.8 | 0.00 | 0.28 | 0.00 | 95 | 1011.0 |
| 20260506151023 | 22 | 209 | 3.2 | 4.8 | 0.00 | 0.28 | 0.00 | 95 | 1011.0 |
| 20260506150020 | 22 | 218 | 6.4 | 9.7 | 0.00 | 0.28 | 0.00 | 94 | 1011.0 |
| 20260506145024 | 23 | 228 | 4.8 | 8.0 | 0.00 | 0.28 | 0.00 | 94 | 1010.9 |
| 20260506144021 | 23 | 213 | 6.4 | 8.0 | 0.00 | 0.28 | 0.00 | 92 | 1010.8 |
| 20260506143024 | 23 | 208 | 4.8 | 6.4 | 0.00 | 0.28 | 0.00 | 92 | 1010.8 |
| 20260506142043 | 23 | 181 | 0.0 | 1.6 | 0.00 | 0.28 | 0.00 | 92 | 1010.8 |
| 20260506141024 | 23 | 166 | 3.2 | 6.4 | 0.00 | 0.28 | 0.00 | 92 | 1010.5 |
| 20260506140021 | 23 | 168 | 6.4 | 12.9 | 0.00 | 0.28 | 0.00 | 92 | 1010.1 |
| 20260506135025 | 23 | 163 | 3.2 | 6.4 | 0.00 | 0.28 | 0.00 | 93 | 1009.9 |
| 20260506134025 | 23 | 171 | 1.6 | 4.8 | 0.00 | 0.28 | 0.00 | 93 | 1009.7 |
| 20260506133022 | 23 | 166 | 6.4 | 11.3 | 0.00 | 0.28 | 0.00 | 94 | 1009.4 |
| 20260506132016 | 23 | 155 | 6.4 | 9.7 | 0.00 | 0.28 | 0.00 | 94 | 1009.3 |
| 20260506131025 | 22 | 170 | 4.8 | 8.0 | 0.00 | 0.28 | 0.00 | 94 | 1009.2 |
| 20260506130126 | 22 | 163 | 3.2 | 6.4 | 0.00 | 0.28 | 0.00 | 94 | 1009.2 |
| 20260506125017 | 22 | 155 | 3.2 | 8.0 | 0.00 | 0.28 | 0.00 | 94 | 1009.0 |
| 20260506124017 | 22 | 179 | 3.2 | 6.4 | 0.00 | 0.28 | 0.00 | 94 | 1008.9 |
| 20260506123017 | 22 | 156 | 4.8 | 11.3 | 0.00 | 0.28 | 0.00 | 95 | 1008.7 |
| 20260506122018 | 22 | 160 | 3.2 | 8.0 | 0.00 | 0.28 | 0.00 | 95 | 1008.8 |
| 20260506121018 | 22 | 161 | 3.2 | 8.0 | 0.00 | 0.28 | 0.00 | 95 | 1008.8 |
| 20260506120038 | 22 | 177 | 3.2 | 6.4 | 0.00 | 0.28 | 0.00 | 95 | 1008.8 |
| 20260506115038 | 22 | 189 | 4.8 | 6.4 | 0.00 | 0.28 | 0.00 | 95 | 1008.8 |
| 20260506114019 | 22 | 170 | 1.6 | 6.4 | 0.00 | 0.28 | 0.00 | 95 | 1008.9 |
| 20260506113019 | 22 | 154 | 3.2 | 6.4 | 0.00 | 0.28 | 0.00 | 95 | 1008.8 |
| 20260506112016 | 22 | 174 | 1.6 | 6.4 | 0.00 | 0.28 | 0.00 | 96 | 1008.9 |
| 20260506111016 | 22 | 146 | 4.8 | 9.7 | 0.00 | 0.28 | 0.00 | 96 | 1008.9 |
| 20260506110015 | 22 | 154 | 4.8 | 8.0 | 0.00 | 0.28 | 0.00 | 96 | 1008.9 |
| 20260506105016 | 22 | 157 | 4.8 | 8.0 | 0.00 | 0.28 | 0.00 | 96 | 1009.0 |
| 20260506104017 | 22 | 152 | 4.8 | 9.7 | 0.00 | 0.28 | 0.00 | 96 | 1009.0 |
| 20260506103017 | 22 | 163 | 4.8 | 9.7 | 0.00 | 0.28 | 0.00 | 96 | 1009.0 |
| 20260506102017 | 22 | 170 | 8.0 | 14.5 | 0.00 | 0.28 | 0.00 | 96 | 1009.0 |
| 20260506101037 | 22 | 162 | 8.0 | 14.5 | 0.00 | 0.28 | 0.00 | 96 | 1008.9 |
| 20260506100017 | 22 | 166 | 8.0 | 17.7 | 0.00 | 0.28 | 0.00 | 95 | 1008.9 |
| 20260506095017 | 22 | 164 | 9.7 | 14.5 | 0.00 | 0.28 | 0.00 | 95 | 1008.9 |
| 20260506094017 | 22 | 164 | 9.7 | 16.1 | 0.00 | 0.28 | 0.00 | 94 | 1008.8 |
| 20260506093018 | 23 | 164 | 8.0 | 19.3 | 0.00 | 0.28 | 0.00 | 93 | 1008.8 |
| 20260506092018 | 23 | 172 | 12.9 | 20.9 | 0.00 | 0.28 | 0.00 | 93 | 1008.7 |
| 20260506091018 | 23 | 163 | 9.7 | 14.5 | 0.00 | 0.28 | 0.00 | 93 | 1008.7 |
| 20260506090018 | 23 | 165 | 9.7 | 17.7 | 0.00 | 0.28 | 0.00 | 92 | 1008.5 |
| 20260506085018 | 23 | 162 | 9.7 | 17.7 | 0.00 | 0.28 | 0.00 | 92 | 1008.5 |
| 20260506084019 | 23 | 168 | 11.3 | 20.9 | 0.00 | 0.28 | 0.00 | 92 | 1008.4 |
| 20260506083056 | 23 | 170 | 12.9 | 25.7 | 0.00 | 0.28 | 0.00 | 93 | 1008.4 |
| 20260506082016 | 23 | 155 | 12.9 | 25.7 | 0.00 | 0.28 | 0.00 | 93 | 1008.4 |
| 20260506081016 | 23 | 161 | 11.3 | 19.3 | 0.00 | 0.28 | 0.00 | 93 | 1008.6 |
| 20260506073017 | 23 | 163 | 11.3 | 19.3 | 0.00 | 0.28 | 0.00 | 91 | 1009.0 |
| 20260506072017 | 23 | 165 | 6.4 | 14.5 | 0.00 | 0.28 | 0.00 | 90 | 1009.1 |
| 20260506071037 | 23 | 156 | 8.0 | 14.5 | 0.00 | 0.28 | 0.00 | 90 | 1009.2 |
| 20260506062038 | 23 | 161 | 12.9 | 19.3 | 0.00 | 0.28 | 0.00 | 89 | 1009.2 |
| 20260506061018 | 24 | 165 | 14.5 | 20.9 | 0.00 | 0.28 | 0.00 | 88 | 1009.1 |
| 20260506051016 | 24 | 157 | 12.9 | 17.7 | 0.00 | 0.28 | 0.00 | 87 | 1008.9 |
| 20260506050331 | 24 | 164 | 12.9 | 20.9 | 0.00 | 0.28 | 0.00 | 87 | 1008.9 |
| 20260506045016 | 24 | 163 | 11.3 | 20.9 | 0.00 | 0.28 | 0.28 | 88 | 1009.0 |
| 20260506044017 | 24 | 162 | 8.0 | 17.7 | 0.00 | 0.28 | 0.28 | 89 | 1008.9 |
| 20260506043037 | 23 | 176 | 3.2 | 6.4 | 0.00 | 0.28 | 0.28 | 89 | 1008.8 |
| 20260506042017 | 23 | 143 | 1.6 | 4.8 | 0.00 | 0.28 | 0.28 | 88 | 1008.7 |
| 20260506041017 | 23 | 145 | 4.8 | 9.7 | 0.00 | 0.28 | 0.28 | 87 | 1008.7 |
| 20260506040017 | 23 | 152 | 4.8 | 9.7 | 0.00 | 0.28 | 0.28 | 86 | 1008.6 |
| 20260506035018 | 23 | 93 | 1.6 | 4.8 | 0.00 | 0.28 | 0.28 | 86 | 1008.5 |
| 20260506034017 | 23 | 45 | 0.0 | 3.2 | 0.00 | 0.28 | 0.28 | 86 | 1008.3 |
| 20260506033018 | 23 | 31 | 1.6 | 3.2 | 0.00 | 0.28 | 0.28 | 85 | 1008.2 |
| 20260506032018 | 24 | 54 | 0.0 | 1.6 | 0.00 | 0.28 | 0.28 | 84 | 1008.1 |
| 20260506031018 | 24 | 9 | 1.6 | 3.2 | 0.00 | 0.28 | 0.28 | 83 | 1008.0 |
| 20260506030018 | 24 | 342 | 0.0 | 1.6 | 0.00 | 0.28 | 0.28 | 83 | 1007.7 |
| 20260506025018 | 24 | 15 | 0.0 | 1.6 | 0.00 | 0.28 | 0.28 | 83 | 1007.7 |
| 20260506024018 | 25 | 333 | 0.0 | 3.2 | 0.00 | 0.28 | 0.28 | 82 | 1007.5 |
| 20260506023016 | 25 | 10 | 1.6 | 4.8 | 0.00 | 0.28 | 0.28 | 82 | 1007.4 |
| 20260506022017 | 25 | 8 | 0.0 | 3.2 | 0.00 | 0.28 | 0.28 | 81 | 1007.2 |
| 20260506021017 | 25 | 185 | 1.6 | 4.8 | 0.00 | 0.28 | 0.28 | 79 | 1007.1 |
| 20260506020016 | 26 | 53 | 0.0 | 1.6 | 0.00 | 0.28 | 0.28 | 78 | 1006.9 |
| 20260506015016 | 26 | 199 | 3.2 | 4.8 | 0.00 | 0.28 | 0.28 | 77 | 1006.9 |
| 20260506014017 | 26 | 205 | 3.2 | 4.8 | 0.00 | 0.28 | 0.28 | 76 | 1006.6 |
| 20260506013039 | 27 | 145 | 1.6 | 6.4 | 0.00 | 0.28 | 0.28 | 74 | 1006.5 |
| 20260506012018 | 27 | 158 | 6.4 | 11.3 | 0.00 | 0.28 | 0.28 | 73 | 1006.3 |
| 20260506011037 | 27 | 162 | 3.2 | 6.4 | 0.03 | 0.28 | 0.28 | 72 | 1006.3 |
| 20260506010017 | 27 | 146 | 1.6 | 4.8 | 0.28 | 0.28 | 0.28 | 70 | 1006.2 |
| 20260506005018 | 28 | 166 | 4.8 | 8.0 | 0.28 | 0.28 | 0.28 | 69 | 1006.2 |
| 20260506004038 | 28 | 163 | 3.2 | 4.8 | 0.28 | 0.28 | 0.28 | 68 | 1006.4 |
| 20260506003018 | 28 | 165 | 3.2 | 4.8 | 0.28 | 0.28 | 0.28 | 67 | 1006.5 |
| 20260506002018 | 28 | 122 | 3.2 | 8.0 | 0.28 | 0.28 | 0.28 | 67 | 1006.5 |